This is the latest recevied weather packets stored in our database for station/object N2XP-3. If no packets are shown the sender has not sent any weather packets the latest 10 day(s).
| Time | Temp. | Humidity | Pressure | Rain* | Wind** | Luminosity | Snow |
|---|---|---|---|---|---|---|---|
| 1777763102 | 12.78° C | 46% | 1008.3 hPa | 0 mm | 0.45 m/s, 198° | - | - |
| 1777762797 | 12.78° C | 44% | 1008.3 hPa | 0 mm | 0.89 m/s, 172° | - | - |
| 1777762568 | 13.33° C | 45% | 1008.2 hPa | 0 mm | 0.89 m/s, 305° | - | - |
| 1777762497 | 13.33° C | 45% | 1008.2 hPa | 0 mm | 0.89 m/s, 305° | - | - |
| 1777762197 | 13.33° C | 44% | 1008.2 hPa | 0 mm | 0 m/s | - | - |
| 1777761290 | 13.89° C | 42% | 1008 hPa | 0 mm | 0.89 m/s, 142° | - | - |
| 1777760976 | 13.89° C | 42% | 1008 hPa | 0 mm | 1.79 m/s, 23° | - | - |
| 1777760677 | 13.89° C | 41% | 1008 hPa | 0 mm | 0 m/s | - | - |
| 1777760559 | 14.44° C | 41% | 1008 hPa | 0 mm | 1.34 m/s, 72° | - | - |
| 1777760375 | 14.44° C | 41% | 1008 hPa | 0 mm | 1.34 m/s, 72° | - | - |
| 1777760071 | 14.44° C | 41% | 1008 hPa | 0 mm | 0.45 m/s, 149° | - | - |
| 1777759457 | 14.44° C | 41% | 1008 hPa | 0 mm | 1.34 m/s, 198° | - | - |
| 1777759135 | 15° C | 40% | 1008 hPa | 0 mm | 0.45 m/s, 77° | - | - |
| 1777757931 | 15.56° C | 41% | 1007.8 hPa | 0 mm | 2.68 m/s, 287° | - | - |
| 1777757829 | 15° C | 41% | 1007.8 hPa | 0 mm | 0.45 m/s, 291° | - | - |
| 1777757662 | 15° C | 41% | 1007.8 hPa | 0 mm | 0.45 m/s, 291° | - | - |
| 1777757630 | 15° C | 41% | 1007.8 hPa | 0 mm | 0.45 m/s, 291° | - | - |
| 1777757442 | 15.56° C | 41% | 1007.8 hPa | 0 mm | 0 m/s | - | - |
| 1777757326 | 15.56° C | 41% | 1007.8 hPa | 0 mm | 0 m/s | - | - |
| 1777757249 | 15.56° C | 40% | 1007.7 hPa | 0 mm | 1.79 m/s, 34° | - | - |
| 1777757024 | 15.56° C | 40% | 1007.7 hPa | 0 mm | 1.79 m/s, 34° | - | - |
| 1777756838 | 15.56° C | 39% | 1007.7 hPa | 0 mm | 3.13 m/s, 93° | - | - |
| 1777756725 | 15.56° C | 39% | 1007.7 hPa | 0 mm | 3.13 m/s, 93° | - | - |
| 1777756115 | 16.11° C | 40% | 1007.6 hPa | 0 mm | 2.24 m/s, 158° | - | - |
| 1777755816 | 16.11° C | 40% | 1007.6 hPa | 0 mm | 0.89 m/s, 321° | - | - |
* Rain latest hour (hover to see other rain measurements)
** Current wind speed in m/s (hover to see current wind gust speed)